Theta_e
312 313 313 313 313 314 314 314 314 315 315 315 315 314 315 315 315 314 314 314 315 315 315 315 315 315 316 316 316 316 316 317 317 317 317 317 317 316 316 316 316 316 316 316 317 317 317 317 317 317 317 317 317 316 316 316 315 315 315 315 315 315 316 316 316 316 316 317 318 318 319 319 319 319 319 319 319 319 319 318 317 316 315 315 315 315
311 312 312 312 313 313 313 314 314 314 314 314 314 314 314 314 314 314 314 314 314 314 314 315 315 315 315 315 316 316 316 316 316 317 317 317 317 317 317 317 317 316 317 317 317 317 317 317 317 317 317 317 316 316 316 315 315 314 314 314 314 314 315 315 316 316 316 317 318 318 318 318 318 318 318 318 318 318 318 317 316 315 315 315 315 316
311 312 312 312 312 312 313 313 313 314 314 314 314 314 314 313 313 313 313 313 314 314 314 314 314 315 315 315 315 315 315 315 315 316 316 316 316 316 316 316 316 316 316 317 317 317 317 317 317 316 316 316 316 315 315 315 314 314 314 314 314 314 314 315 315 315 316 317 317 318 318 318 317 317 317 318 317 317 317 317 316 316 315 315 315 316
310 311 311 311 311 312 312 312 313 313 313 313 313 313 313 313 313 312 313 313 313 313 313 313 313 314 314 314 314 314 314 314 314 315 315 315 315 315 315 315 316 316 316 316 316 316 316 316 316 315 315 315 315 314 314 314 314 314 314 313 314 314 314 314 314 315 316 316 317 317 317 317 317 317 317 317 317 316 316 316 316 316 315 315 316 316
309 310 309 310 310 311 311 312 312 312 313 312 312 312 312 312 312 312 312 313 313 313 313 313 313 313 313 313 313 314 314 314 314 314 314 314 314 314 314 315 315 315 315 315 315 315 314 314 314 314 314 314 314 314 314 314 314 314 314 313 314 313 313 314 314 315 315 316 317 317 317 317 317 316 316 316 316 316 316 316 316 316 315 315 316 316
308 308 308 308 309 310 310 311 311 312 312 312 311 311 311 311 311 311 311 312 312 312 312 313 313 313 313 313 313 313 313 313 313 313 313 313 313 313 313 313 314 314 314 313 313 313 313 313 313 313 313 313 313 314 314 314 314 314 314 314 313 314 313 313 314 314 315 316 317 317 317 317 316 316 316 316 316 316 316 316 315 315 315 315 316 316
307 307 307 307 308 309 309 310 310 311 311 311 310 310 309 309 309 310 310 310 311 311 312 312 312 312 312 312 312 312 312 312 312 312 312 312 312 312 312 312 313 313 313 312 312 312 312 312 312 312 312 313 313 313 314 314 313 314 313 313 313 313 313 313 313 314 315 315 316 316 317 316 316 316 316 316 315 315 315 315 315 315 315 315 316 316
306 306 307 307 307 308 308 309 309 310 310 310 310 310 309 309 309 309 309 309 310 310 310 310 311 311 311 311 311 311 311 311 311 310 311 311 311 311 311 311 312 312 312 312 312 311 311 311 311 312 312 312 312 313 313 313 313 313 313 313 313 313 312 312 312 313 314 315 315 316 316 316 316 316 316 315 315 315 315 315 315 315 315 316 316 316
306 306 306 307 307 308 308 308 309 309 309 309 309 310 310 310 309 309 309 309 309 309 309 309 309 310 310 310 310 310 310 309 309 309 309 309 309 309 310 310 310 310 311 311 311 311 311 311 311 311 311 311 312 312 312 312 312 312 312 312 312 312 312 312 312 312 313 314 314 315 315 316 316 316 315 315 314 314 314 314 314 314 315 316 316 316
305 305 306 306 307 307 308 308 308 309 309 309 309 309 309 309 310 310 310 309 309 309 309 309 309 309 309 309 309 309 308 308 308 308 308 308 308 308 308 308 308 309 309 309 309 310 310 310 310 310 311 311 311 311 311 311 311 312 312 311 311 311 311 311 311 311 312 313 314 314 315 315 315 315 315 315 314 314 314 314 314 314 315 316 316 316
303 304 304 305 306 307 307 307 308 308 308 308 308 308 308 308 308 309 309 310 310 309 309 308 308 309 309 309 309 309 308 307 307 308 308 308 308 308 307 307 307 307 308 308 308 308 309 309 309 309 310 310 310 310 310 310 311 311 311 311 311 311 311 310 310 311 312 312 313 314 314 315 315 315 315 314 314 313 313 313 314 314 315 316 316 316
301 302 303 303 304 305 306 307 308 308 308 307 307 307 307 307 307 307 308 308 309 310 309 309 308 308 308 309 309 308 307 307 307 307 307 307 307 307 307 307 307 307 307 307 307 307 308 308 308 308 308 309 309 309 309 309 310 310 310 310 310 310 310 310 310 310 311 312 313 314 314 315 315 315 315 314 314 313 313 313 314 314 315 316 316 316
300 301 302 302 303 304 305 306 307 307 307 307 307 307 306 306 306 306 307 307 308 309 309 309 308 307 307 307 307 307 307 307 307 306 306 306 306 306 306 306 306 306 306 306 306 306 307 307 307 308 308 308 308 308 308 309 309 309 309 310 310 310 310 310 310 310 311 312 313 314 315 315 315 314 314 314 313 313 313 313 313 315 316 316 316 316
300 300 301 301 302 303 303 304 305 306 306 306 306 306 306 306 306 306 306 307 307 308 308 309 308 308 307 306 306 306 306 306 305 305 305 306 306 306 306 306 306 306 306 306 306 306 306 306 306 307 307 307 307 308 308 308 308 308 309 309 310 310 310 310 310 310 311 312 314 314 315 315 314 314 314 313 313 312 312 312 313 315 316 316 316 316
298 299 300 301 301 302 302 303 304 304 305 305 305 305 305 305 305 306 306 307 307 307 307 307 307 307 307 306 306 305 305 304 304 304 304 305 305 305 305 305 305 305 305 305 306 306 306 306 306 306 306 307 307 307 307 307 307 308 308 309 309 310 310 310 310 310 311 312 313 314 315 315 314 314 313 313 313 312 311 311 313 314 316 316 316 316
297 298 298 299 300 300 301 302 302 303 303 304 304 305 305 305 305 306 307 307 307 307 307 307 307 307 307 306 306 305 305 304 304 304 304 304 305 305 305 305 305 305 305 305 305 306 306 306 306 306 306 306 307 307 307 307 307 307 308 309 309 310 310 310 310 310 311 312 313 314 314 314 314 314 313 313 312 312 311 311 312 313 315 315 315 315
296 296 297 298 298 299 299 300 301 302 302 303 303 304 305 305 306 306 307 307 307 306 306 306 306 307 307 306 306 305 304 304 304 304 304 304 304 304 304 304 304 304 304 304 305 305 305 305 305 306 306 306 307 307 307 307 307 307 308 308 309 310 310 310 310 310 311 312 313 314 314 314 314 313 313 312 312 312 311 310 311 312 314 314 314 314
295 295 296 296 297 297 298 298 299 300 301 302 303 304 304 305 306 306 307 307 307 306 306 306 306 306 306 307 305 304 304 304 304 304 304 304 304 304 304 304 304 304 304 304 304 304 304 305 305 305 306 306 306 306 307 307 307 307 307 308 309 310 310 310 310 310 311 312 313 313 314 314 314 313 313 312 312 311 311 310 310 311 312 313 313 313
295 295 295 296 296 296 297 297 298 299 300 301 302 302 303 303 304 305 305 306 306 306 306 306 306 306 306 306 305 304 304 304 303 304 304 304 304 304 303 303 303 303 303 303 303 303 303 304 304 305 305 305 306 306 306 307 307 307 307 308 309 310 310 310 310 310 311 312 312 313 313 313 313 313 312 312 312 311 311 310 309 309 310 312 312 313
294 294 295 295 295 295 296 296 297 298 299 299 300 301 302 303 304 304 304 305 305 305 305 305 305 305 304 305 305 304 303 303 303 303 304 304 305 304 303 302 302 301 302 302 302 303 303 303 303 304 304 304 305 305 306 306 307 307 308 309 309 310 310 310 310 310 311 311 312 312 313 313 312 312 312 312 311 311 310 309 309 308 309 310 311 312
294 294 294 294 295 295 295 296 296 297 298 299 301 302 303 304 304 305 305 305 305 305 305 305 305 304 304 305 305 305 303 303 303 303 304 304 305 304 303 302 301 301 301 301 302 302 302 302 303 303 304 304 304 305 305 306 307 307 308 309 310 310 310 310 310 310 311 311 312 312 312 312 312 311 311 311 311 311 310 309 308 308 308 308 309 310
293 293 293 294 294 294 295 295 295 296 297 298 299 300 300 301 303 304 305 305 305 305 305 305 305 304 305 305 305 305 304 304 303 303 304 304 305 304 303 302 301 301 301 302 302 302 302 302 302 303 303 304 304 304 305 306 306 307 308 309 310 310 310 310 311 311 311 311 311 311 312 312 311 311 311 311 311 310 309 308 308 307 307 307 308 308
293 293 293 293 293 294 294 294 295 295 295 296 297 298 298 300 301 302 302 303 303 303 304 304 305 305 305 305 305 305 304 304 304 303 304 304 305 305 303 301 301 301 301 302 302 302 302 302 302 302 303 303 304 304 304 305 306 307 308 309 310 310 310 310 311 311 311 311 311 311 311 311 311 310 310 310 310 309 309 308 307 307 307 307 307 307
292 292 292 292 293 293 293 294 294 294 294 295 295 296 297 298 299 299 300 300 300 301 301 302 303 304 304 304 304 303 303 303 303 303 303 304 305 305 303 301 300 301 301 302 303 303 302 302 302 302 302 303 303 304 304 304 305 306 308 309 309 310 310 310 311 311 311 311 311 311 311 310 310 310 310 310 309 309 308 307 307 306 306 306 307 307
291 292 292 292 292 292 293 293 293 294 294 294 294 295 296 296 297 297 298 299 299 299 300 300 301 302 303 303 303 302 301 302 302 302 303 303 304 304 303 301 301 301 302 303 303 302 302 302 302 302 302 303 303 303 304 304 305 306 307 308 309 309 310 310 310 310 310 310 310 310 310 310 310 309 309 309 308 308 307 306 306 306 306 306 306 306
291 291 291 292 292 292 292 293 293 293 294 294 294 295 295 296 296 297 297 297 298 299 299 300 301 302 302 303 303 302 301 300 301 301 302 303 304 303 302 301 300 301 302 303 302 302 302 301 301 302 302 303 303 303 303 304 305 306 307 308 309 309 310 310 310 310 310 310 309 309 309 309 309 309 308 308 307 307 306 306 305 305 305 305 306 306
291 292 292 292 292 292 292 292 293 293 294 294 294 295 295 295 296 296 297 297 297 298 299 299 300 301 302 302 303 303 302 300 300 300 301 302 303 303 302 300 300 301 302 302 301 301 301 301 301 301 302 303 303 303 303 304 304 305 307 308 309 309 310 310 310 310 309 309 309 309 309 308 308 308 307 307 307 306 306 305 305 305 305 305 305 305
292 292 292 292 292 292 292 292 293 293 294 294 295 295 295 296 296 297 297 297 297 298 299 299 300 301 301 302 303 303 303 301 300 299 300 301 301 302 302 301 300 300 301 301 300 299 299 300 300 301 301 302 303 303 303 304 304 305 306 307 308 309 309 309 309 309 309 309 308 308 308 308 307 307 307 306 306 306 305 305 304 304 304 304 304 304
292 292 292 292 292 292 292 293 293 294 294 295 295 296 296 296 297 298 298 298 298 299 299 300 300 300 301 301 302 303 303 302 301 300 300 300 300 301 302 301 299 300 300 300 299 298 298 298 299 300 301 301 302 304 304 304 305 306 306 307 308 308 309 309 309 309 308 308 308 308 307 307 307 306 306 306 305 305 304 304 304 303 303 303 302 302
292 292 292 292 292 293 293 294 294 295 295 296 296 296 296 296 297 297 298 298 298 299 299 300 300 300 300 301 302 302 303 303 302 300 299 299 300 301 301 300 300 300 300 300 299 299 299 299 299 300 300 300 301 303 304 304 305 306 306 307 307 307 308 308 308 308 308 308 307 307 306 306 306 306 306 305 305 304 304 304 303 302 302 301 300 300
292 292 293 293 293 294 294 295 295 295 295 295 295 295 295 295 296 296 296 297 297 297 298 298 299 300 300 301 301 302 302 302 302 301 300 299 300 300 301 300 300 299 300 300 301 301 301 302 301 300 300 300 301 302 303 304 305 305 306 306 306 307 307 307 307 307 307 307 307 306 306 305 305 305 305 305 304 304 303 303 302 301 300 299 299 298
291 291 291 292 293 293 294 294 294 294 294 294 294 294 294 294 295 295 295 296 296 296 296 297 297 298 299 300 300 301 302 302 301 301 300 300 300 300 301 301 300 299 299 300 300 301 302 304 303 299 299 299 300 301 302 303 304 305 305 305 305 306 306 307 307 307 306 306 306 306 305 305 305 305 304 304 304 303 303 302 302 300 299 298 298 297
290 290 290 291 291 291 292 292 292 293 293 293 293 293 293 294 294 294 294 295 295 295 295 296 296 296 297 298 299 300 301 301 301 301 300 300 300 300 300 300 300 300 299 299 300 301 302 304 302 298 297 298 299 300 301 302 303 304 304 304 304 305 305 306 306 306 305 305 305 304 304 304 304 304 304 303 303 303 302 301 301 300 299 298 297 296
289 289 290 290 290 290 290 291 291 291 292 292 292 293 293 293 293 293 293 294 294 294 294 295 295 295 296 297 297 298 299 300 300 300 300 300 300 300 300 300 300 300 299 299 299 300 301 301 300 298 296 297 297 298 299 301 302 303 303 303 304 304 305 305 304 304 304 303 303 302 302 302 302 302 302 302 302 302 301 301 300 299 298 297 297 296
289 289 290 290 290 291 291 291 291 291 292 292 292 292 292 292 292 292 292 293 293 293 294 294 294 294 295 295 296 297 297 298 299 299 299 299 300 300 300 300 300 300 299 299 299 299 299 299 299 299 298 297 297 297 298 299 301 302 302 303 303 304 304 304 303 303 302 302 301 301 301 300 300 300 300 301 301 301 300 300 299 298 298 297 297 296
290 290 290 291 291 292 292 292 292 292 292 292 292 292 292 292 292 292 292 292 292 293 293 293 294 294 294 295 295 296 296 297 298 298 299 299 299 300 300 300 300 300 300 299 299 299 299 299 298 299 299 299 299 298 297 298 300 301 301 302 302 303 303 303 303 302 301 301 300 300 300 299 299 299 299 299 300 300 299 298 298 297 297 296 296 296
291 291 291 291 291 292 292 292 292 292 292 292 292 292 292 292 292 292 292 292 292 293 293 293 294 294 294 295 295 295 295 296 297 297 298 299 299 299 300 300 300 300 300 300 299 299 299 299 298 298 298 300 300 299 297 297 298 299 300 301 301 301 302 302 302 301 301 300 300 299 299 299 299 298 298 298 298 298 298 297 297 296 296 295 295 294
291 291 292 292 292 291 292 292 292 292 292 292 292 292 292 292 292 292 292 292 292 292 292 293 293 294 295 295 296 296 296 297 297 297 298 298 299 299 300 300 300 300 300 300 300 299 299 299 299 298 298 299 300 300 298 297 296 297 298 300 300 300 301 301 301 301 300 300 299 299 299 299 298 298 297 297 297 296 296 295 295 295 294 294 294 293
290 290 291 291 291 291 291 291 291 291 291 291 291 291 291 291 291 291 291 291 291 291 291 291 292 293 294 294 295 295 296 297 297 298 298 298 298 299 299 300 300 300 300 300 300 299 299 299 299 299 299 299 300 300 299 297 296 296 297 298 299 299 299 300 300 300 299 299 299 298 298 298 298 297 297 296 296 295 295 295 294 294 293 293 292 292
288 288 288 289 290 290 290 290 290 290 290 291 291 291 291 291 291 291 290 290 290 291 291 291 292 292 293 293 294 295 295 296 296 297 298 298 298 298 299 299 299 300 299 299 299 299 299 299 300 300 299 299 300 300 299 298 296 296 296 296 297 297 298 299 299 299 299 299 298 298 297 297 297 297 296 296 295 295 295 294 294 293 293 292 292 292
287 287 287 288 289 289 289 290 290 290 290 290 290 290 290 290 290 290 290 290 290 290 291 291 292 292 293 293 293 294 294 295 295 296 297 297 297 297 297 298 299 299 299 299 299 299 299 299 300 300 300 300 300 300 299 298 297 296 296 296 296 297 297 298 298 298 298 298 298 297 297 297 297 296 296 296 295 295 295 294 294 293 293 292 292 292
287 287 288 288 288 289 289 289 289 289 289 289 289 289 289 289 289 290 290 290 290 290 290 291 292 292 292 292 293 293 294 294 295 295 296 297 296 296 296 297 297 298 299 299 299 299 299 299 299 300 300 300 300 300 299 298 297 296 296 297 297 296 296 297 297 297 297 297 297 297 297 296 296 296 296 295 295 295 294 294 294 293 293 292 292 292
287 288 288 288 288 289 289 289 289 289 289 289 289 289 289 289 290 290 290 290 290 290 291 291 292 293 293 293 293 293 294 294 294 295 296 296 296 296 296 296 297 297 298 298 298 299 299 299 299 299 299 300 300 300 299 298 297 296 296 297 297 296 295 296 296 296 297 297 296 296 296 296 296 296 295 295 295 295 294 294 294 293 293 293 292 292
287 288 288 288 288 288 289 289 289 289 289 289 289 289 289 290 290 290 291 291 291 292 292 293 293 293 294 294 294 294 294 294 295 295 295 295 295 295 295 295 296 296 297 297 298 298 299 299 299 299 299 299 299 299 299 298 297 296 296 296 296 296 296 296 295 296 296 296 296 296 296 296 296 295 295 295 295 294 294 294 294 293 293 293 292 292
288 288 288 289 289 289 289 289 289 289 289 289 289 290 290 291 291 291 291 291 292 292 292 292 292 293 293 294 294 294 294 294 294 294 294 294 294 294 294 294 295 296 296 297 298 298 298 298 298 299 299 299 299 299 299 298 297 296 296 296 296 296 296 296 295 295 295 295 295 295 295 295 295 295 295 295 294 294 294 294 293 293 293 292 292 292
288 288 288 288 288 288 288 288 288 289 289 289 290 290 290 290 290 291 291 291 291 291 291 291 292 292 293 293 293 293 293 293 293 293 294 294 294 294 294 294 295 295 296 296 297 298 298 298 298 298 298 298 298 298 298 298 297 296 296 296 296 296 296 296 295 295 295 295 295 295 295 295 295 295 294 294 294 294 294 294 293 293 293 292 292 292
286 287 287 287 287 287 287 287 287 288 288 288 288 289 289 289 289 289 289 289 290 290 290 290 291 292 292 292 292 292 292 292 293 293 294 294 294 294 294 294 294 295 295 296 296 297 298 298 298 298 298 298 298 298 298 297 297 296 296 296 296 296 295 295 294 294 295 295 295 294 294 294 294 294 294 294 293 293 293 293 293 293 293 292 292 292
287 287 287 287 287 287 287 287 287 287 287 287 287 288 288 288 288 289 289 289 290 290 290 291 292 292 292 292 292 292 292 292 293 293 294 294 294 293 293 293 294 294 294 295 295 296 297 298 298 298 298 298 298 297 297 297 296 296 296 295 295 295 295 294 294 294 294 294 294 294 294 294 294 294 293 293 293 293 293 293 293 293 293 292 292 292
287 287 286 286 286 286 286 286 286 286 286 287 287 287 288 288 288 289 289 289 290 290 291 292 292 292 293 293 293 293 293 293 293 294 294 294 294 294 293 293 293 293 293 294 294 295 296 297 297 298 298 298 297 297 297 297 296 296 295 295 295 295 295 294 294 294 294 294 294 294 294 294 294 294 293 293 293 293 292 292 292 292 292 292 292 292
286 286 286 286 286 286 286 286 286 286 286 287 287 288 288 288 288 289 289 289 290 290 291 291 292 292 292 292 293 293 293 294 294 294 294 294 294 294 293 293 292 292 292 293 293 294 294 295 296 296 297 297 297 297 297 296 296 295 295 295 295 295 294 294 293 293 293 293 293 293 293 293 293 293 293 293 293 292 292 292 292 292 292 291 291 291
286 286 286 286 286 286 286 286 286 286 286 287 287 288 288 288 288 289 289 290 290 291 291 292 292 292 292 292 293 293 293 293 294 294 294 294 294 293 293 292 292 292 292 293 293 293 293 293 294 294 294 295 296 296 297 296 295 294 294 294 294 294 294 293 293 293 293 293 293 292 293 293 293 293 293 293 292 292 291 291 291 291 291 291 291 291
Wind_Speed
16 17 20 23 24 24 24 25 25 24 23 21 20 21 22 22 21 21 21 21 21 20 20 20 20 20 20 21 21 22 22 23 23 23 23 23 22 22 22 22 22 22 22 22 22 22 22 22 23 23 23 23 23 23 23 23 23 24 24 24 23 22 21 21 20 20 19 19 19 20 21 22 23 23 23 23 24 24 24 24 23 22 21 19 17 16
20 20 21 23 23 23 23 23 23 23 23 21 20 19 19 20 21 22 22 22 21 21 21 21 21 20 20 20 21 21 22 23 24 25 25 25 25 25 25 25 25 25 24 24 24 24 24 24 25 25 25 24 24 24 23 23 23 23 23 23 23 22 21 20 19 19 18 18 19 20 21 23 23 24 24 24 24 24 24 24 23 22 21 19 18 17
18 17 17 17 18 19 20 21 22 22 22 21 20 19 19 19 21 22 23 22 22 22 22 22 21 21 20 20 20 21 22 23 24 25 25 26 26 26 26 26 26 25 25 25 25 25 25 25 25 25 24 24 24 23 23 23 23 23 23 22 21 21 20 20 19 18 18 18 19 21 22 23 23 24 24 23 23 23 22 22 22 22 21 20 19 18
19 17 17 15 16 17 18 20 20 20 21 21 21 21 21 21 21 21 22 23 22 22 22 22 22 21 21 21 21 21 21 22 23 23 24 24 25 25 25 25 24 24 24 24 23 23 23 23 23 23 23 23 23 22 22 22 22 21 21 21 20 20 19 19 19 19 18 19 20 21 22 23 23 23 23 23 22 22 21 21 21 21 21 21 20 19
20 20 19 18 18 18 18 18 19 20 21 22 22 23 24 23 22 21 23 23 23 22 22 23 23 22 22 22 21 21 21 21 22 22 23 23 23 23 23 23 23 22 22 22 22 22 22 22 22 22 23 22 22 22 21 21 21 21 20 20 19 19 18 19 19 19 19 20 21 22 23 23 23 23 22 22 21 21 20 20 20 20 20 20 20 20
22 21 20 20 19 19 18 18 17 17 19 21 22 23 23 23 23 22 23 24 24 24 24 24 24 24 23 23 22 22 21 21 21 22 22 22 23 23 23 22 22 22 22 21 21 21 22 22 22 22 22 22 22 22 21 21 21 21 20 20 19 19 19 19 20 20 21 22 23 23 23 23 23 23 22 21 21 21 20 19 19 18 19 19 19 19
23 22 21 20 20 19 19 18 17 17 17 19 20 20 20 21 22 23 23 23 24 24 25 26 26 26 25 24 24 23 22 22 22 22 22 22 23 23 23 23 23 23 23 22 23 23 23 23 23 23 23 23 23 22 22 22 22 22 21 21 20 20 20 20 21 22 23 24 24 24 24 24 24 23 22 21 21 21 20 19 19 18 18 18 19 19
23 22 21 21 21 21 20 20 20 19 19 20 20 19 18 18 19 20 21 22 22 22 23 25 26 26 26 25 25 24 23 22 22 22 22 23 23 24 24 24 24 24 24 24 24 25 25 25 25 25 24 24 24 24 24 23 23 23 22 22 22 21 21 21 22 23 25 26 26 26 25 25 25 23 22 21 21 21 20 20 19 18 18 18 19 20
22 22 22 22 22 21 21 21 20 19 20 20 19 19 19 18 17 17 18 18 19 20 21 22 22 23 24 23 23 23 23 22 22 21 21 21 22 23 24 25 25 26 26 26 26 26 27 27 27 26 26 26 26 25 25 25 24 24 24 23 23 22 22 22 23 24 26 27 27 26 26 26 26 24 23 22 21 21 21 20 20 19 19 19 20 21
22 22 22 22 21 21 20 21 20 18 16 16 16 17 18 19 18 18 17 17 17 18 20 20 20 19 19 19 18 19 20 21 22 23 23 22 22 23 23 24 25 26 27 27 28 28 28 28 28 28 28 28 27 27 27 26 26 25 25 24 23 23 22 22 23 25 26 27 27 26 26 27 26 25 24 23 22 22 21 21 21 20 20 20 21 22
22 22 22 21 21 20 20 20 19 17 14 13 14 16 18 19 19 17 17 19 19 18 17 18 19 19 17 16 15 15 16 18 20 22 24 24 25 25 25 26 26 27 28 28 29 29 29 30 30 29 29 29 29 28 28 28 27 26 25 25 24 23 23 23 24 25 26 26 26 27 27 28 27 26 25 24 23 23 22 22 22 22 22 22 22 23
20 20 20 20 20 19 18 18 18 16 15 14 15 17 19 20 19 18 18 19 20 19 17 17 18 19 18 16 15 15 16 18 19 20 21 22 23 24 25 26 27 27 28 28 29 29 30 31 31 31 30 30 30 30 29 29 28 27 26 26 25 24 24 24 24 25 26 26 27 28 29 29 28 27 25 25 24 23 23 22 23 24 24 25 25 24
19 19 19 19 19 19 18 17 14 12 13 15 16 18 19 20 19 18 19 20 21 20 19 17 17 17 18 18 18 17 18 20 21 21 20 20 21 21 21 21 22 23 24 24 26 27 28 29 30 31 31 31 31 31 30 29 29 28 27 26 26 25 25 25 25 25 26 26 28 30 31 30 29 27 25 25 25 24 23 22 23 24 26 27 28 27
17 17 17 18 18 18 19 18 16 15 15 17 19 20 21 20 19 18 19 19 20 20 20 20 18 17 17 18 19 20 20 21 21 22 21 21 21 20 18 18 19 20 20 21 22 24 25 26 27 29 30 31 31 31 31 30 29 29 28 27 27 26 26 25 25 26 26 27 29 31 32 31 29 26 25 25 25 24 22 21 22 23 26 29 30 30
16 15 15 15 16 17 18 18 18 18 19 19 20 21 21 20 19 19 18 18 18 18 19 20 20 20 19 17 18 19 19 19 19 19 19 21 21 21 19 18 18 19 20 20 21 22 23 23 24 25 27 29 30 31 31 31 30 29 28 28 28 27 27 26 26 27 27 28 30 32 32 31 28 26 25 25 25 24 22 21 20 22 25 28 30 30
16 15 14 14 15 17 18 18 18 19 19 19 19 19 19 19 19 18 18 18 17 17 17 17 18 18 18 18 18 18 18 17 16 16 16 17 19 20 19 18 18 19 20 20 21 22 22 22 22 22 24 26 28 29 30 30 30 29 29 29 29 28 28 27 27 27 28 29 30 32 33 31 28 26 25 25 25 24 22 21 20 20 23 26 28 28
16 16 16 15 16 17 18 18 18 19 19 19 19 19 19 19 18 18 18 17 17 16 16 14 9 7 11 15 16 16 17 16 15 14 14 14 16 18 18 18 18 18 19 20 21 22 21 21 21 21 22 23 25 27 28 29 29 29 29 29 29 29 28 28 28 28 28 29 31 33 33 31 28 27 26 26 26 25 23 21 20 20 22 24 26 27
17 17 17 16 17 17 18 18 18 18 18 19 19 19 19 19 19 18 17 17 16 15 15 14 11 7 6 10 12 13 16 16 15 13 12 13 14 15 17 17 18 18 18 19 20 21 21 20 20 21 21 22 24 25 26 27 27 28 28 29 29 29 28 28 28 28 28 29 31 33 32 31 29 27 27 27 27 26 24 23 21 21 22 24 25 26
18 18 18 17 18 18 18 18 18 18 18 18 18 18 19 20 20 20 19 18 18 18 17 15 15 15 14 15 15 14 15 15 14 13 11 11 11 13 15 16 17 17 17 18 20 20 20 20 21 22 22 23 23 24 25 26 26 27 27 28 28 28 28 28 28 28 28 30 31 33 32 30 29 28 28 28 28 27 25 24 22 22 22 23 24 25
20 19 19 19 19 19 19 19 19 18 18 18 18 17 17 18 18 19 20 20 21 22 21 18 17 19 20 21 20 18 16 15 14 12 11 11 11 11 14 15 16 16 17 18 19 20 20 20 20 22 23 23 24 25 25 25 25 26 26 27 28 28 28 28 28 28 29 30 32 32 32 30 29 29 29 28 28 27 26 24 23 22 23 23 24 25
21 22 22 21 20 19 20 20 19 19 18 18 17 17 16 15 14 15 17 19 21 22 21 20 20 22 23 22 21 19 18 16 15 13 11 11 12 12 13 15 15 15 16 17 19 19 19 19 20 20 21 22 23 24 25 25 25 25 26 27 27 28 28 28 28 29 30 31 32 32 32 31 30 29 29 28 28 27 26 25 23 23 23 23 24 24
24 24 23 22 21 22 22 21 21 20 19 19 19 19 18 15 14 13 14 14 15 17 19 21 23 23 23 23 22 20 19 19 17 14 11 11 13 14 13 15 15 14 15 16 17 18 18 18 19 20 20 21 22 23 24 24 25 25 25 26 27 28 28 29 29 30 31 32 33 33 33 32 31 30 29 28 28 27 26 25 24 23 23 23 23 23
26 26 24 23 23 23 23 22 21 21 20 20 21 21 20 19 18 18 16 15 15 15 15 16 19 21 22 22 21 20 20 21 20 17 13 10 12 15 14 14 14 13 14 15 15 15 16 17 18 19 19 20 21 22 23 24 25 25 25 26 27 28 28 29 30 31 33 34 34 34 34 33 32 31 30 29 28 27 26 25 24 23 23 23 23 22
26 26 25 24 23 23 23 22 21 21 21 21 21 22 22 23 24 24 23 23 21 21 20 20 20 19 20 19 18 18 20 21 21 18 16 14 14 14 13 13 13 12 13 14 13 13 14 16 17 18 18 19 20 21 23 24 24 24 24 25 26 27 28 29 31 33 34 35 36 35 35 33 32 31 30 29 28 27 26 25 24 23 23 23 22 22
24 24 23 23 23 23 23 22 22 21 21 21 21 21 21 22 23 24 25 25 24 23 22 20 18 16 16 14 13 14 18 21 21 20 16 15 15 13 9 12 12 11 11 12 13 14 15 15 15 16 17 18 19 21 22 23 23 23 23 24 25 26 28 30 32 34 35 36 36 36 34 33 32 31 30 29 28 27 26 25 24 23 23 23 22 22
25 25 25 25 25 25 25 25 25 25 24 23 22 21 20 20 21 21 22 23 23 22 21 19 16 14 15 13 12 13 15 18 21 21 18 16 15 14 10 11 12 11 11 10 12 14 15 14 14 15 17 18 19 20 21 21 22 22 22 24 25 26 28 30 32 34 36 36 36 34 33 32 31 30 30 29 27 26 25 24 24 23 23 23 23 23
28 28 28 28 28 28 29 29 29 29 29 28 27 25 23 22 21 20 21 21 21 20 19 14 11 11 13 12 12 13 14 15 19 21 21 17 15 13 11 11 11 12 12 10 11 13 14 13 12 13 16 18 20 20 21 21 21 21 22 24 26 27 28 30 33 35 36 36 34 33 32 31 31 30 30 28 27 26 25 24 24 23 23 23 24 24
28 29 29 29 29 30 31 31 32 32 32 32 32 31 29 26 23 21 21 20 19 19 19 13 10 8 8 10 12 13 14 14 17 20 21 17 14 12 12 11 11 12 11 9 10 13 15 14 13 13 14 17 19 21 22 21 21 21 22 24 26 28 30 31 33 34 35 34 33 32 31 31 31 31 30 28 27 26 25 24 24 24 24 24 24 24
24 25 26 27 28 29 30 32 33 34 34 33 33 32 30 28 25 22 20 18 16 16 17 16 14 12 12 14 15 14 15 15 16 19 20 16 14 13 12 11 11 12 10 7 8 10 13 15 15 15 14 16 19 22 23 23 23 24 24 26 27 29 30 32 33 34 34 33 32 31 31 31 31 31 30 29 28 27 26 25 24 24 24 24 24 23
20 21 22 23 25 26 28 30 30 29 29 28 27 25 24 23 22 21 19 16 14 14 15 14 14 15 15 15 12 11 13 16 16 17 19 16 13 12 12 11 12 12 10 6 4 4 8 12 15 17 17 17 18 21 24 25 26 26 27 27 29 30 30 31 32 33 33 33 32 32 32 32 32 32 30 29 28 27 26 26 25 25 25 24 22 21
18 18 19 20 21 22 23 23 23 22 21 20 19 18 17 17 17 17 17 15 15 15 15 14 13 13 13 8 5 5 7 14 16 16 18 16 13 12 13 12 12 13 12 9 4 1 3 6 9 14 17 18 19 20 22 25 27 28 28 28 30 31 32 31 32 32 33 33 33 33 33 33 33 32 31 30 28 28 27 27 26 26 24 23 21 20
20 20 19 19 19 19 19 19 19 19 18 18 17 16 16 15 15 15 15 15 15 16 16 15 15 14 13 10 8 6 6 11 14 16 19 17 15 14 14 14 13 13 15 14 10 6 3 3 4 8 13 16 18 19 21 24 26 28 28 28 29 31 33 33 33 33 33 34 34 34 34 34 34 33 32 30 29 28 28 27 27 26 24 22 20 19
22 21 21 21 20 19 20 20 20 20 19 19 19 19 18 17 16 16 16 15 16 16 17 17 16 16 15 15 13 12 12 12 13 16 19 18 15 13 14 15 14 14 15 16 15 12 8 5 2 3 7 12 15 18 20 23 25 27 27 27 27 30 32 33 34 34 34 34 34 34 34 35 35 34 32 31 29 28 28 27 27 26 24 23 21 20
21 21 21 21 20 20 20 21 21 20 20 20 20 20 19 19 18 18 17 17 16 17 17 18 18 18 17 16 15 15 15 15 14 14 17 18 16 13 14 15 15 13 13 14 14 13 10 7 3 1 2 7 11 15 18 21 23 25 26 25 26 28 31 33 34 34 35 34 34 34 33 34 34 33 32 30 29 29 28 28 27 26 24 23 22 21
20 20 19 19 19 19 19 19 19 19 19 19 19 19 19 19 19 18 18 17 17 17 17 18 19 19 19 18 17 17 18 18 16 14 15 18 16 13 13 14 14 14 13 13 12 10 8 7 7 5 3 3 7 11 16 20 22 24 25 24 25 27 31 33 34 34 34 34 34 33 33 33 32 32 30 30 29 29 28 28 27 26 24 23 22 22
19 19 19 18 17 17 17 17 17 16 16 17 17 17 17 17 18 17 17 17 17 17 17 18 19 19 19 19 20 20 22 21 19 17 16 18 18 15 12 13 14 14 13 13 12 11 9 8 9 10 8 5 5 7 13 18 21 23 24 23 23 26 30 33 34 34 34 33 33 33 33 32 32 31 30 29 29 28 28 27 26 25 24 23 22 21
19 19 19 18 17 16 15 15 15 15 15 15 15 16 16 16 16 16 16 15 15 16 17 17 18 19 20 21 21 22 23 22 21 20 18 19 19 18 15 14 14 15 14 14 13 11 10 9 8 9 10 10 7 5 8 14 19 22 23 23 22 24 29 33 35 35 34 34 34 34 33 33 31 30 29 28 28 27 27 26 25 25 24 23 22 21
16 17 17 17 16 16 15 15 14 14 14 14 14 14 15 15 15 15 15 15 15 16 17 18 19 20 21 22 23 24 24 23 22 22 22 22 21 20 19 18 17 17 17 16 14 12 11 8 6 5 6 10 11 9 8 11 15 19 22 23 23 23 27 31 34 35 34 34 35 35 34 33 32 31 29 28 27 27 26 25 24 23 22 22 21 20
14 14 14 14 14 15 15 15 15 15 14 14 14 14 14 14 14 15 15 15 16 17 18 19 19 20 22 23 25 26 26 26 25 26 26 26 25 24 22 21 21 20 20 18 17 15 14 11 9 6 5 8 11 12 11 11 14 18 20 21 21 22 25 29 32 33 34 34 34 34 34 33 33 31 30 29 29 28 27 26 24 23 23 22 20 19
16 17 16 16 16 16 16 17 17 16 16 16 15 15 15 15 16 16 16 17 17 18 18 19 19 20 21 22 24 25 26 27 28 29 30 30 28 27 25 24 23 22 22 21 20 18 18 16 15 14 12 11 12 12 12 12 15 19 20 17 16 18 22 27 31 32 33 33 33 33 32 33 33 32 31 30 30 29 28 27 26 25 24 23 21 19
16 16 17 16 16 16 16 16 16 16 16 16 16 16 16 16 17 17 18 18 17 17 16 17 17 18 20 21 22 23 24 26 28 29 30 30 29 27 26 24 23 23 23 23 22 22 21 20 19 18 16 15 15 14 13 13 16 19 21 19 17 18 22 26 29 31 32 32 32 33 32 33 32 32 30 30 30 30 30 28 27 26 24 24 23 21
15 15 15 15 15 14 14 14 14 14 15 16 16 16 17 16 16 17 17 17 17 16 16 16 16 17 18 19 20 21 22 24 26 27 27 25 25 24 24 24 24 23 23 22 22 22 23 23 22 21 20 18 16 14 14 14 17 20 23 22 20 19 20 24 27 30 31 31 31 32 32 32 32 32 31 30 30 30 29 29 28 26 25 25 24 23
15 15 15 14 14 14 14 14 14 14 14 15 15 15 16 16 16 16 16 16 16 16 15 15 16 16 16 17 17 18 19 21 22 23 23 23 23 22 23 24 25 24 23 22 21 21 22 23 23 22 21 20 18 16 15 14 16 19 23 23 22 18 13 18 24 28 30 30 30 31 32 33 33 32 31 31 30 30 28 28 27 27 26 26 25 23
15 15 15 14 14 13 13 13 13 13 13 13 14 15 15 16 16 16 16 15 15 14 14 15 15 15 15 15 15 15 16 17 19 21 22 23 24 24 24 25 26 26 26 24 21 20 20 20 22 23 22 21 20 18 16 15 16 18 22 24 24 21 18 19 24 28 28 29 30 31 33 34 33 33 31 30 30 29 27 27 26 25 25 25 25 23
14 14 13 12 12 12 12 13 13 13 14 14 15 15 15 16 16 15 15 14 13 13 13 13 13 12 12 13 13 14 15 15 17 19 21 23 24 24 24 24 25 26 27 26 25 22 19 18 19 21 22 22 21 20 18 16 16 18 21 24 25 24 23 23 27 29 27 27 29 31 33 34 34 32 29 28 28 28 28 27 27 25 25 25 24 23
12 12 11 11 11 12 12 13 14 14 14 15 15 15 15 15 14 14 14 14 14 14 14 14 13 12 12 13 13 14 15 15 16 17 18 20 22 22 23 23 24 25 27 27 26 25 24 22 21 20 20 20 20 20 19 17 17 17 19 22 23 23 21 22 26 29 29 28 28 30 33 34 33 31 27 26 27 27 27 27 27 26 25 25 25 23
12 12 12 12 12 12 13 13 13 14 14 15 15 15 15 15 15 16 16 15 15 15 15 15 14 14 14 14 14 14 14 15 15 15 14 15 17 19 20 21 22 24 26 26 26 25 25 25 25 23 21 19 17 17 18 18 18 18 19 21 22 22 20 21 24 28 29 29 29 30 32 33 31 28 26 25 25 25 26 26 26 27 26 26 25 24
11 11 11 11 11 12 12 12 13 13 14 14 15 15 15 15 15 15 16 16 15 15 14 14 14 14 14 14 15 15 15 15 15 15 14 13 13 15 17 18 20 22 24 25 25 25 25 25 25 26 25 21 18 17 18 19 19 19 20 21 22 22 20 20 23 27 28 28 29 31 33 33 30 27 26 24 23 22 23 24 25 26 26 26 26 24
11 11 11 11 11 11 12 12 13 13 14 14 15 15 15 15 15 15 15 15 15 14 14 14 14 14 13 14 15 15 15 15 15 14 14 12 11 12 13 15 16 17 18 21 22 23 23 23 23 24 25 23 21 19 18 18 19 19 20 21 22 21 19 20 22 25 26 26 28 31 34 33 32 31 28 25 22 21 21 22 23 24 25 26 26 25
11 11 11 11 11 12 12 13 13 14 14 15 15 15 14 14 14 14 14 14 14 14 14 15 15 14 14 14 14 14 13 13 13 13 13 12 11 11 11 12 12 12 13 14 15 15 16 16 17 20 23 23 21 20 18 18 18 19 19 20 21 20 19 19 22 24 26 26 28 30 32 31 31 31 29 25 22 21 21 21 22 24 25 26 26 26
11 11 11 11 12 12 13 13 14 14 15 15 15 15 14 14 14 14 14 15 15 15 15 15 15 14 14 14 13 13 12 12 11 12 13 13 11 10 10 11 11 10 10 9 8 7 6 6 7 10 15 19 21 20 18 18 18 18 18 18 19 20 19 19 21 23 25 26 27 29 30 28 28 27 27 24 22 20 19 20 21 24 26 27 27 26
Wind_Direction
270 269 268 269 269 269 268 267 267 268 268 269 269 271 273 273 273 273 272 271 270 268 265 263 260 258 255 253 252 252 251 249 248 246 246 246 247 247 247 246 246 247 247 249 250 252 253 254 255 256 257 257 256 255 253 250 248 246 244 242 241 240 239 239 239 239 237 234 232 231 231 233 236 238 239 240 240 241 240 238 235 231 228 226 223 220
271 268 267 267 266 265 265 265 266 266 266 265 265 267 270 273 276 277 276 274 271 269 266 264 262 260 257 254 252 250 249 249 248 248 249 249 250 250 250 250 250 251 252 252 253 254 255 255 256 256 256 255 254 252 250 247 245 243 241 240 239 239 238 238 238 237 235 232 230 229 229 230 233 237 239 240 240 240 239 237 233 229 225 221 218 216
264 263 261 261 260 260 261 264 265 265 265 263 262 263 265 270 275 277 277 275 273 270 267 265 263 261 258 255 253 250 248 248 248 248 249 249 249 249 249 249 250 250 251 252 252 253 254 254 254 254 253 252 250 248 246 244 242 240 239 238 238 238 238 237 236 235 233 231 230 229 228 230 233 236 239 239 239 238 237 235 232 228 224 221 218 216
267 266 265 263 261 259 259 262 263 263 263 262 261 261 264 268 270 271 272 272 271 269 267 265 263 260 258 255 253 250 247 246 246 246 247 248 248 248 248 248 248 248 249 250 250 251 251 251 251 250 249 248 246 244 242 240 239 238 237 237 237 238 238 236 234 232 230 229 229 228 228 230 233 236 238 238 236 235 233 231 229 227 224 222 219 217
268 269 270 269 267 264 262 261 262 263 262 262 263 264 266 267 267 267 267 268 267 265 263 262 261 259 257 255 253 250 247 244 244 244 245 246 246 247 246 246 246 247 247 248 248 249 249 249 248 247 247 245 244 242 240 239 238 237 238 239 240 242 241 238 234 230 228 227 227 227 228 230 233 236 237 235 233 231 229 227 226 224 223 221 218 216
267 268 269 269 268 267 266 264 262 261 262 264 266 268 269 268 266 265 264 264 263 261 259 258 258 257 256 254 253 251 248 245 244 244 244 245 246 246 246 246 246 246 246 246 246 246 246 246 246 245 245 244 243 241 240 240 239 240 241 243 245 248 248 244 237 230 226 226 226 226 227 230 233 235 234 232 229 227 225 224 222 221 220 218 215 213
267 267 267 267 267 267 267 266 265 263 262 265 268 269 269 269 268 266 265 263 261 258 257 256 256 255 254 253 253 252 250 247 245 245 245 246 246 247 247 247 247 247 246 246 245 244 244 244 244 244 244 243 243 242 242 242 243 243 245 247 249 251 253 250 241 232 225 224 224 225 226 229 232 233 232 229 226 224 222 221 219 218 216 214 211 209
267 266 265 265 265 266 266 264 263 261 260 262 265 267 267 266 266 267 267 265 261 257 254 254 254 253 252 252 252 252 251 250 248 248 248 248 249 249 249 249 248 248 248 247 246 245 244 243 243 243 243 243 243 243 244 244 245 246 247 249 250 252 254 252 244 234 225 222 223 224 226 228 231 232 230 227 224 222 220 218 216 214 213 211 208 206
266 266 264 262 261 262 263 262 258 253 253 255 258 262 265 265 264 264 265 262 258 254 251 250 250 251 251 251 251 251 251 250 249 248 248 249 250 251 251 251 251 251 250 250 249 248 247 246 245 244 244 244 244 244 245 246 246 247 248 249 250 251 252 251 245 234 224 221 221 224 226 229 231 231 229 225 223 220 218 217 214 210 209 208 206 205
265 265 265 262 259 257 259 260 259 253 245 245 250 256 261 265 267 266 265 260 256 252 249 246 246 247 248 247 247 247 249 250 251 251 250 249 249 250 251 252 253 254 254 254 253 252 251 250 249 248 247 246 245 245 245 246 247 247 248 248 248 249 249 249 243 234 224 221 221 224 228 231 231 230 228 225 222 220 217 216 212 208 207 207 206 205
266 265 266 265 262 258 257 259 260 257 247 244 249 255 258 261 264 267 266 262 258 254 248 245 243 243 243 243 241 240 242 246 251 254 254 254 253 253 253 254 255 256 256 257 256 256 255 254 253 252 250 248 247 246 246 246 247 247 247 246 246 246 246 246 241 232 223 220 222 226 230 233 232 230 227 224 222 220 217 215 212 209 207 207 206 205
265 265 264 264 264 262 259 258 257 255 252 250 254 258 259 259 259 260 261 261 259 256 250 246 244 244 243 242 240 239 240 243 247 252 255 257 258 258 257 257 257 257 257 258 258 258 257 257 256 255 253 251 249 248 247 246 246 245 245 244 243 242 243 242 237 229 220 220 223 228 232 233 232 230 227 224 223 220 218 216 213 211 209 207 206 206
265 265 264 264 263 263 262 258 253 248 247 249 252 256 259 259 257 255 255 256 256 256 253 251 249 250 250 248 245 243 243 245 248 251 252 254 256 257 257 257 257 257 256 256 256 256 257 257 257 256 255 253 251 250 248 246 245 244 243 241 239 239 240 239 234 225 218 219 224 228 230 231 230 228 226 224 223 221 219 217 215 213 212 209 207 206
267 267 266 265 263 262 261 259 256 251 250 250 251 253 256 258 256 253 252 252 253 254 255 255 255 256 256 255 251 247 246 247 249 251 252 252 252 252 251 251 252 252 252 251 251 253 254 255 255 256 255 254 252 250 248 247 245 243 240 238 236 235 237 236 230 222 216 220 225 228 228 227 226 225 225 225 224 222 219 217 216 215 214 211 208 206
269 269 268 265 264 262 261 261 260 258 256 255 254 255 256 255 253 251 249 250 251 253 255 258 259 260 259 255 251 249 246 245 246 248 250 251 251 250 247 246 247 248 247 246 247 249 250 250 251 252 254 254 252 251 249 246 244 241 238 235 233 233 234 233 227 220 216 221 225 227 226 224 223 222 223 224 224 222 219 216 215 214 214 210 207 204
269 269 268 267 265 263 262 261 261 261 261 260 259 257 255 253 251 248 246 247 250 252 254 257 260 262 261 256 250 246 243 240 240 242 245 248 250 249 245 242 242 244 245 245 245 246 247 247 247 248 249 251 252 252 250 247 244 240 236 232 230 230 231 230 224 218 217 221 225 227 225 223 221 220 221 223 223 222 219 215 212 211 209 205 200 196
268 268 268 268 267 266 265 263 263 263 264 263 262 259 257 255 253 251 248 248 249 250 251 253 255 261 263 258 250 242 237 234 234 238 241 245 247 246 242 238 237 239 243 243 244 245 245 244 244 244 245 247 249 250 249 247 243 239 234 231 228 228 228 226 221 217 218 222 225 225 224 222 220 219 220 221 222 222 220 215 211 208 205 199 194 188
263 264 265 266 266 266 267 266 265 265 266 266 265 264 262 260 258 257 254 252 250 249 248 249 249 251 261 260 251 240 236 229 228 232 238 242 243 241 238 235 234 235 239 242 243 243 243 242 241 241 241 242 243 245 246 245 241 237 232 229 227 226 224 221 218 216 218 222 224 224 222 221 220 219 219 219 220 221 220 216 211 208 205 200 194 189
260 260 261 262 264 266 266 265 265 266 266 265 266 266 265 263 261 259 257 255 253 251 250 251 251 253 257 259 255 247 240 228 222 225 234 240 239 235 233 232 231 233 237 241 242 243 242 241 240 240 239 238 239 241 242 242 238 234 230 227 225 223 221 218 215 215 218 222 223 222 220 219 219 218 217 217 218 220 221 218 213 209 207 206 203 198
260 259 258 260 263 265 265 263 263 263 263 266 269 272 273 272 268 262 257 254 252 251 251 250 251 252 255 257 256 251 242 227 218 218 229 239 238 233 232 229 229 233 239 242 244 243 242 241 241 240 239 238 237 237 238 238 235 231 227 224 222 220 218 216 215 216 219 221 221 220 219 219 217 216 216 216 217 219 220 219 215 210 209 210 211 210
260 259 257 258 260 262 262 262 261 263 266 272 280 287 289 289 282 272 263 256 251 246 243 243 246 248 249 251 252 249 239 224 213 213 230 241 244 241 234 230 230 233 239 244 247 246 243 241 241 241 240 239 237 236 235 233 231 227 224 221 219 218 216 216 216 218 220 221 221 220 220 219 217 215 215 215 216 217 219 218 215 212 210 211 213 215
259 259 259 258 258 259 260 262 263 264 268 274 278 280 281 286 286 282 278 271 262 254 248 245 246 246 245 246 246 244 236 226 216 213 228 245 250 244 232 228 228 231 237 243 246 245 242 240 241 242 242 240 238 235 232 229 227 224 222 219 217 216 216 217 219 220 221 222 221 221 220 219 217 215 214 214 215 216 216 216 214 212 211 212 213 216
257 258 260 260 259 259 261 262 263 263 265 267 268 268 270 275 278 281 287 291 291 287 281 272 265 258 250 245 240 236 232 227 220 218 227 242 253 249 235 225 223 227 235 241 242 239 237 238 241 244 244 241 237 233 230 227 224 222 220 217 215 215 216 218 220 221 221 221 221 220 219 218 215 213 213 214 214 214 214 213 212 211 212 213 215 217
254 256 259 259 259 259 260 261 262 262 263 263 263 263 265 268 271 274 278 284 288 291 294 295 290 278 265 252 241 231 226 222 219 218 226 241 253 252 238 222 218 224 234 238 237 233 234 238 243 246 245 240 234 230 227 225 222 220 218 217 215 215 216 218 220 220 219 219 218 218 217 215 213 212 212 212 212 211 211 210 210 210 212 214 216 219
253 255 256 257 258 258 259 259 260 261 261 262 262 263 265 266 268 270 273 275 278 281 285 288 286 279 270 258 247 235 227 221 216 215 219 237 246 245 235 221 217 222 234 236 235 234 236 240 245 246 242 236 231 227 224 222 220 218 217 217 216 216 217 218 219 218 217 215 214 214 213 213 212 211 210 210 209 209 208 208 208 209 212 215 217 220
254 255 256 258 259 260 260 260 260 260 260 260 261 262 264 266 269 270 270 269 269 272 274 275 275 273 271 263 251 241 233 224 219 217 219 231 240 242 234 222 218 224 233 234 236 238 238 240 243 244 239 232 227 223 221 219 217 215 216 217 218 218 218 219 218 216 214 212 211 211 211 211 211 210 208 207 207 207 206 206 206 209 212 215 217 219
254 255 256 258 260 261 262 262 261 260 259 258 258 259 262 265 267 268 265 262 262 262 263 263 265 269 271 266 256 246 237 227 221 219 220 225 234 237 230 219 218 223 231 235 240 241 240 239 242 243 238 230 224 220 218 217 215 215 217 219 219 219 219 218 216 214 212 210 209 210 210 211 210 209 207 206 205 205 204 204 205 208 211 213 214 215
255 256 257 260 262 263 263 262 261 260 259 258 257 257 258 259 259 258 257 257 258 257 255 253 253 258 261 258 256 250 240 228 222 219 217 219 228 234 229 218 216 221 228 237 246 248 246 242 242 242 239 232 224 218 216 214 214 216 219 221 220 219 218 216 214 212 210 209 209 210 211 211 210 208 206 205 204 203 203 203 204 207 209 210 210 210
256 258 259 261 263 264 264 263 262 260 259 258 257 257 256 254 252 250 250 254 258 259 256 252 250 249 251 254 257 255 247 237 227 218 212 214 224 233 229 218 215 218 222 233 252 258 255 249 245 241 239 234 226 219 215 213 213 214 217 220 220 219 217 214 212 211 210 209 210 210 211 210 209 207 205 204 203 203 202 202 203 205 206 206 205 205
262 260 260 261 263 264 265 265 264 262 260 258 258 258 258 256 253 249 249 253 261 265 265 263 257 252 250 252 254 254 249 242 232 218 208 209 220 228 223 218 217 217 215 219 241 263 258 252 246 242 239 236 229 222 217 214 212 212 213 215 217 218 217 215 213 211 210 210 210 210 210 209 208 206 204 203 203 202 202 202 202 201 200 200 200 201
277 274 270 267 265 265 267 268 268 267 265 263 262 263 264 264 261 257 254 255 260 268 274 278 275 266 258 253 246 242 243 240 229 215 210 210 217 224 218 216 218 217 210 209 211 249 245 242 237 236 238 235 231 226 219 216 214 212 211 211 212 213 215 216 215 214 213 212 211 210 209 208 206 205 203 203 202 202 202 202 201 199 196 194 194 195
282 280 277 275 274 273 273 273 273 273 273 271 269 269 269 269 268 266 263 260 260 264 272 279 283 281 274 267 260 256 255 246 230 214 211 212 219 222 217 218 220 216 210 210 216 231 246 233 210 215 227 230 230 228 222 218 216 214 213 212 211 211 212 214 215 214 213 212 211 209 208 207 205 204 203 202 202 202 203 201 199 196 193 191 190 191
276 275 273 273 274 274 273 272 271 270 270 270 269 268 268 267 267 267 266 264 262 262 265 271 276 279 279 275 271 269 267 263 245 224 213 213 216 218 215 219 220 215 208 210 218 229 242 250 218 190 214 223 226 226 224 220 217 216 215 214 213 211 209 209 209 208 208 207 206 205 205 205 204 203 202 201 201 202 202 200 198 195 193 191 190 189
271 270 269 268 268 267 266 265 264 263 263 262 262 262 262 263 262 262 261 261 261 261 262 264 267 270 273 275 275 273 272 272 264 242 221 215 215 216 214 216 215 210 203 207 214 223 236 245 243 178 208 224 228 227 226 222 219 216 215 215 214 211 207 203 201 200 199 198 197 196 197 199 199 199 198 199 200 201 201 200 198 196 194 193 191 190
267 266 266 265 265 264 263 261 260 259 258 257 256 257 257 257 257 257 256 256 256 257 258 259 260 262 264 266 268 269 268 272 272 259 235 224 224 225 219 216 213 208 201 203 207 212 224 235 237 234 229 228 232 233 230 225 220 216 213 212 212 209 205 200 196 194 192 191 190 189 190 191 192 192 193 195 197 199 200 198 197 196 196 196 194 193
263 263 263 264 265 266 264 262 260 258 257 257 257 257 256 256 255 255 254 254 254 255 256 256 258 258 259 260 261 262 263 266 270 266 251 237 234 235 233 226 217 210 204 206 207 208 214 225 231 234 237 238 238 237 235 229 222 215 211 208 206 204 202 198 195 191 188 186 185 185 186 187 187 188 189 192 195 197 197 196 196 196 196 196 195 196
264 261 259 260 261 263 264 266 265 263 262 260 259 258 256 255 255 255 255 255 256 257 258 259 259 260 259 259 259 260 260 262 264 264 257 247 239 237 240 238 229 218 211 211 209 208 212 218 223 227 233 237 237 231 225 227 222 216 211 204 199 196 196 195 194 191 188 186 185 184 184 185 185 186 187 189 192 193 193 193 193 194 195 195 194 195
275 270 265 261 260 261 264 268 269 269 267 265 262 259 256 255 255 257 259 261 261 261 262 263 262 262 261 261 261 261 261 261 260 259 257 251 243 238 239 243 241 232 224 221 216 211 212 217 215 214 227 234 236 231 216 214 214 212 210 203 196 191 190 191 190 189 187 186 185 185 184 184 184 184 184 185 185 185 185 187 189 191 192 192 192 194
293 292 288 282 276 271 268 268 268 269 268 267 265 263 262 261 262 263 265 266 266 264 263 262 262 262 261 261 261 262 262 262 261 259 257 251 244 239 238 241 243 241 237 234 230 225 221 223 223 220 221 230 233 232 226 213 207 206 205 201 196 191 189 188 188 187 187 186 184 184 183 184 183 182 181 181 180 180 180 182 185 187 188 188 189 191
288 291 292 290 285 278 272 270 269 269 270 270 269 269 268 268 268 269 269 268 267 264 261 260 260 260 259 259 259 260 261 261 262 261 258 252 244 238 236 236 239 241 242 242 239 235 231 231 233 231 226 227 229 227 222 212 205 202 197 195 197 195 189 187 187 187 186 186 184 183 182 182 182 181 180 180 179 179 180 181 182 184 186 185 184 184
278 280 280 280 278 276 273 273 273 273 273 274 273 272 270 269 269 270 271 269 267 264 261 260 259 259 259 258 258 258 258 260 261 261 259 253 246 240 237 235 235 237 239 240 238 234 232 232 232 232 229 228 226 222 214 208 203 198 193 193 195 194 189 187 187 187 186 185 185 184 182 182 182 181 180 180 181 182 183 182 182 183 185 186 185 182
269 270 271 272 273 273 274 276 278 279 279 278 276 274 272 270 269 268 268 268 267 265 264 264 263 261 261 260 258 256 255 257 259 260 259 255 250 246 243 241 239 238 238 237 233 230 228 227 227 228 227 225 222 219 216 210 202 198 196 196 194 190 188 189 189 187 185 185 185 184 183 182 181 181 181 180 182 183 184 184 183 183 184 186 188 187
264 264 265 267 269 272 276 279 281 281 281 280 279 277 276 273 270 267 266 265 264 264 264 263 261 260 258 257 255 253 252 252 254 256 258 260 260 259 257 253 249 245 241 238 234 229 223 222 223 224 223 220 216 214 211 204 197 197 199 197 190 183 184 190 190 188 186 186 185 184 183 182 182 181 181 181 181 182 183 184 184 185 186 186 187 189
262 261 260 260 261 265 270 275 278 279 280 280 280 280 278 275 270 266 264 262 261 259 259 260 261 261 260 259 257 256 255 253 253 255 258 261 263 264 264 262 258 252 245 240 235 229 224 221 221 222 220 216 213 210 205 199 195 196 199 197 193 190 189 189 187 186 186 186 186 185 185 184 182 181 180 180 180 180 180 182 183 184 186 188 188 188
265 266 266 266 268 271 274 277 279 280 280 279 279 279 278 277 275 273 271 269 270 270 271 273 273 271 267 265 265 265 264 261 259 259 260 262 262 262 261 260 258 253 247 242 237 232 226 221 219 219 217 213 210 207 202 195 193 195 197 197 197 197 196 191 188 186 185 184 185 185 185 184 181 178 177 177 178 179 180 181 182 183 185 187 188 189
293 293 293 291 289 287 285 284 284 283 282 281 279 277 276 278 280 281 280 279 279 280 279 278 276 272 268 267 267 267 266 265 262 260 258 259 260 261 259 257 254 250 246 243 239 236 231 226 221 216 213 210 208 205 200 194 191 192 195 196 198 198 196 192 190 188 186 185 184 185 185 183 180 176 174 175 176 179 180 181 182 182 183 185 187 188
300 299 297 295 292 289 287 287 286 285 283 281 279 278 277 277 277 277 277 276 274 272 271 269 266 263 261 261 262 262 262 262 261 257 252 251 253 256 257 255 253 249 245 243 241 239 236 232 226 219 211 206 203 202 199 195 191 190 191 193 194 195 193 191 190 189 188 186 185 184 183 180 177 175 175 174 175 178 180 182 183 183 184 185 186 186
290 290 291 291 290 290 289 289 287 285 283 281 279 278 278 276 275 273 272 270 267 265 263 260 258 257 257 258 258 257 256 257 257 256 253 246 245 248 252 252 251 248 245 243 242 242 240 236 230 222 215 208 202 199 197 195 193 191 191 191 192 194 193 191 190 190 188 187 186 183 181 179 177 176 174 173 174 177 180 181 183 184 185 186 185 185
290 290 290 291 291 290 289 289 287 285 282 280 279 278 276 275 273 271 269 267 264 261 258 255 254 255 256 257 257 255 252 251 251 253 253 249 244 243 245 248 248 246 244 243 243 243 241 236 230 224 218 211 204 199 195 193 191 190 189 190 191 192 192 190 190 189 188 187 186 184 182 182 181 179 175 173 173 176 179 181 183 185 186 187 186 186
292 292 291 291 290 289 289 288 286 283 280 278 277 276 276 276 274 271 268 265 261 258 255 252 251 252 252 254 255 255 254 252 251 252 253 251 247 240 235 239 240 240 240 241 241 240 236 232 226 219 213 208 204 199 193 189 186 185 186 188 190 190 189 188 188 187 186 186 185 184 183 182 182 180 177 175 174 175 176 179 182 184 186 187 187 187
294 293 292 291 290 289 288 286 284 280 278 276 275 275 275 275 274 271 267 263 259 256 254 251 250 249 248 249 252 256 258 259 259 258 258 255 247 235 227 228 228 227 228 229 226 221 216 216 218 216 211 204 199 194 190 185 180 178 181 185 187 187 186 185 186 186 185 185 184 182 181 180 180 179 178 175 173 173 174 177 181 184 185 186 186 187